Regional Weather Roundup
Issued by NWS

Home | Current Version | Previous Version | Text Only | Print | Product List | Glossary On
Versions: 1 2 3 4 5 6 7 8 9 10 11 12 13 14 15 16 17 18 19 20 21 22 23 24 25 26 27 28 29 30 31 32 33 34 35 36 37 38 39 40 41 42 43 44 45 46 47 48 49 50
000
ASUS43 KLMK 022010
RWRKY
KENTUCKY REGIONAL WEATHER ROUNDUP
NATIONAL WEATHER SERVICE LOUISVILLE KY
300 PM EST MON MAR 02 2015

NOTE "FAIR" INDICATES FEW OR NO CLOUDS BELOW 12,000 FEET
WITH NO SIGNIFICANT WEATHER AND/OR OBSTRUCTIONS TO VISIBILITY.

KYZ001>023-026-027-061>063-070>075-022100-
WESTERN AND SOUTH CENTRAL KENTUCKY

CITY           SKY/WX    TMP DP  RH WIND       PRES   REMARKS
PADUCAH        SUNNY     39  20  46 E9        30.42F WCI  33
HENDERSON      MOSUNNY   36  19  51 NE8       30.45F WCI  29
OWENSBORO      MOSUNNY   39  20  47 E9        30.45F WCI  33
HOPKINSVILLE   SUNNY     42  26  52 NE9       30.39F
BOWLING GREEN    N/A     45  24  43 NE9       30.41F
GLASGOW        SUNNY     42  25  51 E6        30.40F
$$

KYZ024-025-028>034-038-045-046-053-022100-
NORTH CENTRAL KENTUCKY

CITY           SKY/WX    TMP DP  RH WIND       PRES   REMARKS
LOUISVILLE/SDF PTSUNNY   40  14  34 VRB3      30.44F
LOUISVILLE/LOU MOSUNNY   39  15  37 NE6       30.45F WCI  35
FORT KNOX      MOSUNNY   38  17  41 NE8       30.41F WCI  32
$$

KYZ035>037-039>044-047>052-055>060-089>105-022100-
NORTHEAST KENTUCKY

CITY           SKY/WX    TMP DP  RH WIND       PRES   REMARKS
LEXINGTON      SUNNY     36  21  54 N8        30.43F WCI  30
COVINGTON      PTSUNNY   34  14  43 N3        30.44F
FRANKFORT      SUNNY     36  19  50 SE5       30.42F WCI  32
$$

KYZ054-064>069-076>088-106>120-022100-
SOUTHEAST KENTUCKY

CITY           SKY/WX    TMP DP  RH WIND       PRES   REMARKS
JACKSON        MOSUNNY   42  18  37 CALM      30.37F
LONDON         SUNNY     44  24  45 N8        30.36F
SOMERSET       SUNNY     41  25  52 N7        30.40F
MIDDLESBORO    SUNNY     44  29  56 CALM      30.36F
MONTICELLO     CLEAR     44  29  56 N7        30.40F
$$




USA.gov is the U.S. government's official web portal to all federal, state and local government web resources and services.